contact:dominique.lefevre@mio.osupytheas.fr, maurice.libes@osupytheas.fr, didier.mallarino@osupytheas.fr
Project:EMSO http://www.emso-fr.org/EMSO-France
Depth: 2436.0 m
Title:EMSO Ligure Ouest : Data MII capteur AQUADOPP
Date,Latitude,Longitude,X_East,Y_North,Z_Up,Amplitude_X,Amplitude_Y,Amplitude_Z,Batterie,SoundSpeed,Heading,Pitch,Roll,Pressure,TIS,Speed,Direction
, degrees North, degrees East, m.s-1, m.s-1,m.s-1, 1, 1, 1, Volt, m.s-1, degree, degree, degree, dbar, degree_C, m.s-1, degree
2020-08-27T00:04:03,42.805,6.029,-0.005,-0.012,-0.005,104.0,106.0,106.0,13.3,1505.3,326.5,-0.7,1.8,2470.424,13.33,0.013,202.6
2020-08-27T00:07:03,42.805,6.029,0.005,-0.013,-0.008,105.0,105.0,102.0,13.3,1505.4,324.6,-0.8,1.8,2470.433,13.34,0.013,159.0
2020-08-27T00:10:03,42.805,6.029,-0.003,-0.01,-0.005,105.0,105.0,103.0,13.3,1505.4,324.7,-0.7,1.8,2470.385,13.34,0.01,196.7
2020-08-27T00:13:03,42.805,6.029,0.008,0.006,0.004,106.0,105.0,102.0,13.3,1505.4,324.1,-0.7,1.9,2470.38,13.35,0.01,53.1
2020-08-27T00:16:03,42.805,6.029,-0.008,0.026,0.003,106.0,108.0,104.0,13.4,1505.4,327.5,-0.7,1.9,2470.382,13.35,0.027,342.9
2020-08-27T00:19:03,42.805,6.029,-0.001,0.004,-0.014,107.0,109.0,103.0,13.3,1505.4,324.5,-0.7,1.9,2470.414,13.35,0.004,346.0
2020-08-27T00:22:03,42.805,6.029,0.006,0.001,-0.03,106.0,108.0,103.0,13.4,1505.4,327.9,-0.7,1.8,2470.39,13.35,0.006,80.5
2020-08-27T00:25:03,42.805,6.029,0.0,-0.021,-0.003,108.0,108.0,105.0,13.3,1505.4,327.8,-0.7,1.8,2470.398,13.35,0.021,180.0
2020-08-27T00:28:03,42.805,6.029,0.002,0.013,0.024,106.0,108.0,104.0,13.3,1505.4,325.2,-0.6,1.8,2470.437,13.35,0.013,8.7
2020-08-27T00:31:03,42.805,6.029,0.016,0.004,-0.024,106.0,109.0,109.0,13.4,1505.4,325.9,-0.7,1.8,2470.432,13.35,0.016,76.0
2020-08-27T00:34:03,42.805,6.029,0.005,0.008,0.006,105.0,107.0,103.0,13.4,1505.4,327.2,-0.7,1.8,2470.385,13.35,0.009,32.0
2020-08-27T00:37:03,42.805,6.029,0.014,-0.002,-0.003,105.0,108.0,104.0,13.4,1505.4,324.8,-0.7,1.8,2470.412,13.35,0.014,98.1
2020-08-27T00:40:03,42.805,6.029,0.017,-0.004,0.026,105.0,107.0,104.0,13.4,1505.4,323.2,-0.7,1.8,2470.397,13.35,0.017,103.2
2020-08-27T00:43:03,42.805,6.029,0.035,0.005,0.006,105.0,107.0,102.0,13.4,1505.4,324.2,-0.7,1.8,2470.392,13.35,0.035,81.9
2020-08-27T00:46:03,42.805,6.029,0.019,-0.002,-0.007,105.0,106.0,103.0,13.4,1505.4,323.1,-0.7,1.8,2470.419,13.35,0.019,96.0
2020-08-27T00:49:03,42.805,6.029,0.043,0.015,0.028,105.0,106.0,102.0,13.4,1505.4,325.5,-0.7,1.8,2470.379,13.35,0.045,70.8
2020-08-27T00:52:03,42.805,6.029,0.019,0.002,0.026,105.0,108.0,104.0,13.4,1505.4,325.5,-0.7,1.8,2470.343,13.35,0.019,84.0
2020-08-27T00:55:03,42.805,6.029,0.044,0.005,0.046,104.0,109.0,103.0,13.4,1505.4,325.1,-0.7,1.9,2470.426,13.35,0.044,83.5
2020-08-27T00:58:03,42.805,6.029,0.024,0.0,0.009,105.0,108.0,102.0,13.3,1505.4,324.3,-0.7,1.8,2470.442,13.35,0.024,90.0
2020-08-27T01:04:03,42.805,6.029,0.007,0.021,0.025,107.0,109.0,103.0,13.4,1505.3,326.5,-0.7,1.8,2470.451,13.33,0.022,18.4
2020-08-27T01:07:03,42.805,6.029,0.011,-0.004,-0.005,104.0,109.0,103.0,13.4,1505.4,326.7,-0.7,1.9,2470.427,13.34,0.011,110.0
2020-08-27T01:10:03,42.805,6.029,0.027,0.007,0.004,106.0,109.0,104.0,13.4,1505.4,325.5,-0.7,1.8,2470.411,13.34,0.027,75.5
2020-08-27T01:13:03,42.805,6.029,0.024,-0.012,0.004,105.0,110.0,103.0,13.3,1505.4,325.7,-0.7,1.8,2470.456,13.35,0.026,116.6
2020-08-27T01:16:03,42.805,6.029,0.0,-0.005,0.021,104.0,107.0,104.0,13.3,1505.4,324.7,-0.7,1.8,2470.439,13.35,0.005,180.0
2020-08-27T01:19:03,42.805,6.029,0.023,0.009,0.05,106.0,109.0,102.0,13.4,1505.4,326.5,-0.7,1.8,2470.453,13.35,0.024,68.6
2020-08-27T01:22:03,42.805,6.029,0.013,-0.02,0.023,105.0,109.0,104.0,13.4,1505.4,327.9,-0.7,1.9,2470.403,13.35,0.023,147.0
2020-08-27T01:25:03,42.805,6.029,0.019,0.005,0.028,104.0,108.0,104.0,13.3,1505.4,325.2,-0.7,1.8,2470.42,13.35,0.019,75.3
2020-08-27T01:28:03,42.805,6.029,0.022,0.012,0.027,104.0,108.0,103.0,13.4,1505.4,323.4,-0.6,1.9,2470.385,13.35,0.025,61.4
2020-08-27T01:31:03,42.805,6.029,-0.013,0.01,-0.022,106.0,106.0,103.0,13.4,1505.4,325.1,-0.7,1.8,2470.4,13.35,0.016,307.6
2020-08-27T01:34:03,42.805,6.029,0.0,0.016,0.03,107.0,108.0,102.0,13.4,1505.4,328.2,-0.7,1.8,2470.407,13.35,0.016,0.0
2020-08-27T01:37:03,42.805,6.029,0.018,-0.007,-0.012,106.0,109.0,104.0,13.4,1505.4,324.0,-0.7,1.8,2470.406,13.35,0.019,111.2
2020-08-27T01:40:03,42.805,6.029,0.019,0.001,0.0,106.0,111.0,104.0,13.4,1505.4,325.6,-0.7,1.8,2470.426,13.35,0.019,87.0
2020-08-27T01:43:03,42.805,6.029,0.029,0.014,0.018,107.0,110.0,104.0,13.4,1505.4,324.8,-0.7,1.8,2470.403,13.35,0.032,64.2
2020-08-27T01:46:03,42.805,6.029,0.017,0.0,-0.006,106.0,111.0,102.0,13.3,1505.4,326.7,-0.7,1.8,2470.41,13.35,0.017,90.0
2020-08-27T01:49:03,42.805,6.029,0.019,0.016,0.017,104.0,109.0,103.0,13.3,1505.4,327.7,-0.7,1.8,2470.426,13.35,0.024,49.9
2020-08-27T01:52:03,42.805,6.029,0.023,0.026,0.045,106.0,111.0,103.0,13.3,1505.4,323.2,-0.7,1.8,2470.438,13.35,0.034,41.5
2020-08-27T01:55:03,42.805,6.029,0.02,0.022,0.025,105.0,108.0,104.0,13.4,1505.4,326.0,-0.7,1.8,2470.412,13.35,0.029,42.3
2020-08-27T01:58:03,42.805,6.029,0.008,0.016,0.003,105.0,109.0,103.0,13.3,1505.4,324.7,-0.7,1.8,2470.396,13.35,0.017,26.6
2020-08-27T02:04:03,42.805,6.029,0.029,0.017,0.0,104.0,108.0,104.0,13.4,1505.3,327.0,-0.7,1.8,2470.434,13.33,0.033,59.6
2020-08-27T02:07:03,42.805,6.029,0.01,0.008,0.025,106.0,109.0,105.0,13.3,1505.4,323.9,-0.7,1.9,2470.445,13.34,0.012,51.3
2020-08-27T02:10:03,42.805,6.029,-0.007,0.014,0.0,107.0,109.0,103.0,13.4,1505.4,324.8,-0.7,1.8,2470.402,13.34,0.015,333.4
2020-08-27T02:13:03,42.805,6.029,0.0,0.016,0.03,106.0,109.0,103.0,13.4,1505.4,327.8,-0.7,1.8,2470.416,13.34,0.016,0.0
2020-08-27T02:16:03,42.805,6.029,0.011,0.023,0.019,106.0,108.0,102.0,13.3,1505.4,324.5,-0.7,1.8,2470.411,13.34,0.025,25.6
2020-08-27T02:19:03,42.805,6.029,0.009,0.021,0.015,105.0,107.0,102.0,13.4,1505.4,327.9,-0.7,1.8,2470.407,13.34,0.022,23.2
2020-08-27T02:22:03,42.805,6.029,0.009,0.01,0.011,105.0,107.0,103.0,13.3,1505.4,323.7,-0.7,1.8,2470.43,13.34,0.013,42.0
2020-08-27T02:25:03,42.805,6.029,0.04,0.01,0.01,104.0,108.0,103.0,13.3,1505.4,326.6,-0.7,1.8,2470.431,13.34,0.041,76.0
2020-08-27T02:28:03,42.805,6.029,0.028,0.027,0.04,106.0,106.0,102.0,13.4,1505.4,325.7,-0.7,1.9,2470.39,13.34,0.038,46.0
2020-08-27T02:31:03,42.805,6.029,0.018,0.04,0.027,105.0,108.0,102.0,13.4,1505.4,325.7,-0.7,1.8,2470.385,13.34,0.043,24.2
2020-08-27T02:34:03,42.805,6.029,0.028,0.011,0.038,104.0,108.0,101.0,13.3,1505.4,327.1,-0.7,1.8,2470.417,13.34,0.03,68.6
2020-08-27T02:37:03,42.805,6.029,0.017,0.015,0.034,104.0,108.0,102.0,13.4,1505.4,324.0,-0.7,1.8,2470.397,13.34,0.022,48.6
2020-08-27T02:40:03,42.805,6.029,0.037,0.003,0.037,108.0,108.0,101.0,13.4,1505.4,324.8,-0.7,1.8,2470.417,13.34,0.037,85.4
2020-08-27T02:43:03,42.805,6.029,0.04,-0.007,0.025,106.0,109.0,103.0,13.4,1505.4,327.5,-0.7,1.9,2470.405,13.34,0.04,99.9
2020-08-27T02:46:03,42.805,6.029,-0.001,0.0,-0.01,106.0,107.0,102.0,13.3,1505.4,323.5,-0.7,1.8,2470.43,13.34,0.001,270.0
2020-08-27T02:49:03,42.805,6.029,-0.007,0.009,-0.018,106.0,108.0,104.0,13.3,1505.4,323.8,-0.7,1.8,2470.45,13.34,0.011,322.1
2020-08-27T02:52:03,42.805,6.029,0.001,0.008,-0.003,105.0,109.0,104.0,13.3,1505.4,326.1,-0.7,1.8,2470.399,13.35,0.008,7.1
2020-08-27T02:55:03,42.805,6.029,0.015,0.023,0.009,104.0,109.0,104.0,13.4,1505.4,324.2,-0.7,1.8,2470.378,13.35,0.027,33.1
2020-08-27T02:58:03,42.805,6.029,0.036,0.007,0.02,105.0,107.0,103.0,13.4,1505.4,325.7,-0.7,1.8,2470.394,13.35,0.036,79.0
2020-08-27T03:04:03,42.805,6.029,0.002,0.027,-0.023,108.0,107.0,103.0,13.4,1505.3,325.5,-0.7,1.8,2470.361,13.33,0.027,4.2
2020-08-27T03:07:03,42.805,6.029,-0.001,0.007,0.036,106.0,108.0,103.0,13.4,1505.3,326.3,-0.7,1.8,2470.369,13.33,0.007,351.9
2020-08-27T03:10:03,42.805,6.029,0.03,0.003,0.005,105.0,108.0,104.0,13.3,1505.4,327.3,-0.7,1.8,2470.414,13.34,0.03,84.3
2020-08-27T03:13:03,42.805,6.029,0.009,-0.003,0.025,106.0,109.0,103.0,13.4,1505.4,324.3,-0.7,1.8,2470.419,13.34,0.009,108.4
2020-08-27T03:16:03,42.805,6.029,0.005,0.013,0.007,105.0,109.0,103.0,13.3,1505.4,323.2,-0.7,1.8,2470.468,13.34,0.013,21.0
2020-08-27T03:19:03,42.805,6.029,0.0,0.02,0.063,105.0,108.0,103.0,13.4,1505.4,324.2,-0.7,1.8,2470.398,13.34,0.02,0.0
2020-08-27T03:22:03,42.805,6.029,-0.011,0.009,-0.011,106.0,106.0,103.0,13.3,1505.4,325.9,-0.7,1.8,2470.401,13.34,0.014,309.3
2020-08-27T03:25:03,42.805,6.029,0.017,0.008,-0.003,107.0,107.0,102.0,13.3,1505.4,324.5,-0.7,1.8,2470.369,13.34,0.018,64.8
2020-08-27T03:28:03,42.805,6.029,0.001,-0.01,-0.005,106.0,109.0,104.0,13.4,1505.4,328.2,-0.7,1.8,2470.417,13.34,0.01,174.3
2020-08-27T03:31:03,42.805,6.029,0.003,0.024,-0.012,107.0,108.0,104.0,13.3,1505.4,325.0,-0.7,1.9,2470.399,13.34,0.024,7.1
2020-08-27T03:34:03,42.805,6.029,-0.004,0.009,-0.003,105.0,109.0,102.0,13.4,1505.4,324.1,-0.7,1.8,2470.414,13.34,0.009,336.0
2020-08-27T03:37:03,42.805,6.029,-0.017,0.004,-0.011,104.0,109.0,102.0,13.3,1505.4,326.3,-0.7,1.9,2470.419,13.34,0.017,283.2
2020-08-27T03:40:03,42.805,6.029,0.016,0.015,0.019,106.0,108.0,104.0,13.4,1505.4,325.2,-0.7,1.8,2470.396,13.34,0.021,46.9
2020-08-27T03:43:03,42.805,6.029,0.002,0.004,-0.02,106.0,108.0,103.0,13.4,1505.4,325.3,-0.7,1.8,2470.375,13.34,0.004,26.6
2020-08-27T03:46:03,42.805,6.029,-0.014,0.016,-0.021,105.0,109.0,103.0,13.4,1505.4,323.4,-0.7,1.8,2470.399,13.34,0.021,318.8
2020-08-27T03:49:03,42.805,6.029,0.013,0.002,-0.008,105.0,108.0,103.0,13.4,1505.4,324.8,-0.7,1.8,2470.397,13.35,0.013,81.3
2020-08-27T03:52:03,42.805,6.029,-0.002,0.024,-0.009,106.0,108.0,105.0,13.4,1505.4,326.4,-0.7,1.9,2470.406,13.35,0.024,355.2
2020-08-27T03:55:03,42.805,6.029,-0.014,0.012,0.01,106.0,109.0,103.0,13.4,1505.4,323.4,-0.7,1.9,2470.421,13.35,0.018,310.6
2020-08-27T03:58:03,42.805,6.029,-0.009,-0.011,-0.013,106.0,110.0,105.0,13.4,1505.4,324.4,-0.7,1.8,2470.357,13.35,0.014,219.3
2020-08-27T04:04:03,42.805,6.029,-0.004,-0.009,-0.005,107.0,108.0,104.0,13.4,1505.3,326.0,-0.7,1.8,2470.381,13.33,0.009,204.0
2020-08-27T04:07:03,42.805,6.029,0.005,0.001,0.023,106.0,108.0,104.0,13.4,1505.3,323.4,-0.8,1.8,2470.336,13.33,0.005,78.7
2020-08-27T04:10:03,42.805,6.029,0.032,0.003,0.021,108.0,109.0,103.0,13.4,1505.4,324.4,-0.7,1.8,2470.42,13.34,0.032,84.6
2020-08-27T04:13:03,42.805,6.029,-0.001,0.01,0.002,109.0,110.0,104.0,13.3,1505.4,327.6,-0.7,1.9,2470.381,13.34,0.01,354.3
2020-08-27T04:16:03,42.805,6.029,0.016,-0.01,0.016,108.0,109.0,104.0,13.3,1505.4,327.7,-0.7,1.8,2470.402,13.34,0.018,122.0
2020-08-27T04:19:03,42.805,6.029,0.009,0.009,-0.003,107.0,111.0,103.0,13.3,1505.4,323.7,-0.7,1.8,2470.397,13.34,0.012,45.0
2020-08-27T04:22:03,42.805,6.029,0.025,0.004,0.018,107.0,109.0,103.0,13.4,1505.4,323.5,-0.7,1.8,2470.416,13.34,0.025,80.9
2020-08-27T04:25:03,42.805,6.029,0.015,0.014,0.01,106.0,109.0,104.0,13.3,1505.4,323.2,-0.7,1.8,2470.394,13.34,0.02,47.0
2020-08-27T04:28:03,42.805,6.029,-0.013,0.0,-0.02,108.0,110.0,106.0,13.3,1505.4,324.8,-0.7,1.8,2470.365,13.34,0.013,270.0
2020-08-27T04:31:03,42.805,6.029,-0.007,0.003,0.014,107.0,109.0,104.0,13.3,1505.4,326.6,-0.7,1.8,2470.379,13.34,0.007,293.2
2020-08-27T04:34:03,42.805,6.029,0.008,0.016,0.0,107.0,109.0,105.0,13.4,1505.4,326.3,-0.7,1.8,2470.405,13.34,0.017,26.6
2020-08-27T04:37:03,42.805,6.029,0.001,0.0,0.022,108.0,109.0,104.0,13.3,1505.4,325.3,-0.7,1.8,2470.377,13.34,0.001,90.0
2020-08-27T04:43:03,42.805,6.029,0.008,0.013,0.016,107.0,108.0,103.0,13.3,1505.3,324.9,-0.7,1.8,2470.412,13.33,0.015,31.6
2020-08-27T04:46:03,42.805,6.029,-0.045,0.025,-0.024,104.0,109.0,104.0,13.3,1505.3,325.8,-0.7,1.8,2470.464,13.33,0.051,299.1
2020-08-27T04:49:03,42.805,6.029,-0.008,0.015,-0.008,108.0,108.0,104.0,13.3,1505.3,325.0,-0.7,1.8,2470.38,13.33,0.017,331.9
2020-08-27T04:52:03,42.805,6.029,-0.016,0.019,-0.019,104.0,108.0,102.0,13.4,1505.4,323.1,-0.7,1.8,2470.416,13.34,0.024,319.9
2020-08-27T04:55:03,42.805,6.029,0.001,0.009,-0.005,105.0,106.0,102.0,13.3,1505.4,326.0,-0.7,1.8,2470.375,13.34,0.009,6.3
2020-08-27T04:58:03,42.805,6.029,0.023,0.001,0.019,103.0,107.0,102.0,13.4,1505.4,325.6,-0.7,1.8,2470.372,13.34,0.023,87.5
2020-08-27T05:04:03,42.805,6.029,0.004,0.019,-0.021,105.0,107.0,102.0,13.4,1505.3,327.5,-0.7,1.8,2470.436,13.32,0.019,11.9
2020-08-27T05:07:03,42.805,6.029,-0.007,0.008,-0.016,107.0,108.0,103.0,13.3,1505.3,328.1,-0.7,1.8,2470.386,13.33,0.01,318.8
2020-08-27T05:10:03,42.805,6.029,-0.005,0.008,-0.011,105.0,107.0,102.0,13.3,1505.3,325.4,-0.7,1.8,2470.399,13.33,0.009,328.0
2020-08-27T05:13:03,42.805,6.029,-0.013,0.011,0.016,105.0,108.0,103.0,13.3,1505.3,326.8,-0.7,1.9,2470.462,13.33,0.017,310.2
2020-08-27T05:16:03,42.805,6.029,0.022,0.0,-0.019,105.0,106.0,103.0,13.4,1505.4,324.7,-0.7,1.8,2470.404,13.34,0.022,90.0
2020-08-27T05:19:03,42.805,6.029,0.017,0.001,0.011,104.0,106.0,103.0,13.3,1505.4,323.8,-0.7,1.8,2470.385,13.34,0.017,86.6
2020-08-27T05:22:03,42.805,6.029,0.004,0.016,-0.019,106.0,107.0,104.0,13.4,1505.4,326.6,-0.7,1.8,2470.359,13.34,0.016,14.0
2020-08-27T05:25:03,42.805,6.029,-0.001,-0.007,-0.035,105.0,107.0,102.0,13.3,1505.4,325.9,-0.7,1.8,2470.392,13.34,0.007,188.1
2020-08-27T05:28:03,42.805,6.029,-0.012,0.0,-0.022,106.0,106.0,103.0,13.4,1505.4,325.6,-0.7,1.9,2470.409,13.34,0.012,270.0
2020-08-27T05:31:03,42.805,6.029,0.011,0.011,0.001,105.0,108.0,103.0,13.4,1505.4,327.2,-0.7,1.8,2470.396,13.34,0.015,45.0
2020-08-27T05:34:03,42.805,6.029,-0.018,0.014,-0.009,106.0,106.0,105.0,13.4,1505.4,325.0,-0.7,1.9,2470.332,13.34,0.022,307.9
2020-08-27T05:37:03,42.805,6.029,0.011,0.015,0.02,107.0,108.0,103.0,13.3,1505.4,326.3,-0.7,1.8,2470.406,13.34,0.018,36.3
2020-08-27T05:40:03,42.805,6.029,0.004,0.009,0.034,106.0,107.0,103.0,13.4,1505.4,324.7,-0.7,1.8,2470.373,13.34,0.009,24.0
2020-08-27T05:43:03,42.805,6.029,-0.001,-0.007,-0.022,105.0,106.0,104.0,13.4,1505.4,326.6,-0.7,1.8,2470.351,13.34,0.007,188.1
2020-08-27T05:46:03,42.805,6.029,0.016,0.002,0.017,105.0,106.0,104.0,13.4,1505.4,324.7,-0.7,1.8,2470.328,13.34,0.016,82.9
2020-08-27T05:49:03,42.805,6.029,0.018,0.026,-0.004,105.0,108.0,102.0,13.4,1505.4,327.2,-0.7,1.8,2470.351,13.34,0.031,34.7
2020-08-27T05:52:03,42.805,6.029,0.004,0.012,0.009,105.0,107.0,104.0,13.3,1505.4,324.7,-0.7,1.8,2470.327,13.34,0.012,18.4
2020-08-27T05:55:03,42.805,6.029,-0.03,0.022,-0.03,106.0,108.0,102.0,13.3,1505.4,324.1,-0.7,1.9,2470.36,13.34,0.037,306.3
2020-08-27T05:58:03,42.805,6.029,0.007,0.033,0.013,104.0,110.0,103.0,13.4,1505.4,325.2,-0.7,1.8,2470.373,13.34,0.033,12.0
2020-08-27T06:04:03,42.805,6.029,-0.02,0.013,0.004,105.0,109.0,105.0,13.3,1505.3,326.5,-0.7,1.8,2470.38,13.32,0.023,303.0
2020-08-27T06:07:03,42.805,6.029,-0.002,0.029,-0.018,106.0,106.0,103.0,13.4,1505.3,326.8,-0.7,1.8,2470.346,13.33,0.029,356.1
2020-08-27T06:10:03,42.805,6.029,-0.015,0.011,-0.03,104.0,108.0,104.0,13.4,1505.3,326.9,-0.7,1.8,2470.404,13.33,0.018,306.3
2020-08-27T06:13:03,42.805,6.029,0.027,0.005,-0.013,106.0,108.0,103.0,13.4,1505.3,326.0,-0.7,1.8,2470.391,13.33,0.027,79.5
2020-08-27T06:16:03,42.805,6.029,0.002,0.014,0.007,106.0,108.0,104.0,13.4,1505.4,323.7,-0.7,1.9,2470.353,13.34,0.014,8.1
2020-08-27T06:19:03,42.805,6.029,0.01,0.003,0.006,107.0,108.0,104.0,13.4,1505.4,324.2,-0.7,1.8,2470.343,13.34,0.01,73.3
2020-08-27T06:22:03,42.805,6.029,-0.03,0.004,-0.014,109.0,107.0,103.0,13.3,1505.4,324.7,-0.7,1.8,2470.365,13.34,0.03,277.6
2020-08-27T06:25:03,42.805,6.029,-0.005,-0.004,-0.027,106.0,108.0,102.0,13.4,1505.4,325.6,-0.7,1.8,2470.375,13.34,0.006,231.3
2020-08-27T06:28:03,42.805,6.029,0.01,0.009,-0.017,105.0,109.0,104.0,13.4,1505.4,322.4,-0.7,1.8,2470.365,13.34,0.013,48.0
2020-08-27T06:31:03,42.805,6.029,-0.035,0.029,-0.028,106.0,109.0,105.0,13.4,1505.4,324.9,-0.7,1.8,2470.344,13.34,0.045,309.6
2020-08-27T06:34:03,42.805,6.029,0.014,0.011,-0.025,108.0,109.0,103.0,13.4,1505.4,323.3,-0.7,1.8,2470.334,13.34,0.017,51.8
2020-08-27T06:37:03,42.805,6.029,-0.018,0.015,-0.051,104.0,108.0,103.0,13.4,1505.4,325.8,-0.7,1.8,2470.35,13.34,0.023,309.8
2020-08-27T06:40:03,42.805,6.029,-0.007,0.017,0.018,106.0,108.0,104.0,13.4,1505.4,327.9,-0.7,1.8,2470.341,13.34,0.018,337.6
2020-08-27T06:43:03,42.805,6.029,0.007,0.006,-0.045,104.0,108.0,104.0,13.3,1505.4,325.9,-0.7,1.8,2470.378,13.34,0.009,49.4
2020-08-27T06:46:03,42.805,6.029,0.01,0.005,-0.02,105.0,108.0,104.0,13.4,1505.4,325.0,-0.8,1.9,2470.334,13.34,0.011,63.4
2020-08-27T06:49:03,42.805,6.029,-0.019,-0.002,-0.027,104.0,108.0,104.0,13.4,1505.4,328.1,-0.7,1.8,2470.312,13.34,0.019,264.0
2020-08-27T06:52:03,42.805,6.029,-0.04,0.013,-0.016,106.0,108.0,103.0,13.3,1505.4,327.8,-0.7,1.8,2470.317,13.34,0.042,288.0
2020-08-27T06:55:03,42.805,6.029,-0.01,0.015,-0.001,106.0,107.0,103.0,13.4,1505.4,326.0,-0.7,1.8,2470.329,13.34,0.018,326.3
2020-08-27T06:58:03,42.805,6.029,-0.024,0.009,-0.025,106.0,108.0,104.0,13.3,1505.4,324.1,-0.7,1.8,2470.356,13.34,0.025,290.6
2020-08-27T07:04:03,42.805,6.029,0.012,0.008,0.0,106.0,108.0,104.0,13.4,1505.3,325.3,-0.7,1.8,2470.355,13.32,0.014,56.3
2020-08-27T07:07:03,42.805,6.029,-0.035,0.006,-0.039,106.0,109.0,103.0,13.3,1505.3,325.2,-0.7,1.8,2470.371,13.33,0.035,279.7
2020-08-27T07:10:03,42.805,6.029,-0.005,0.016,-0.004,105.0,107.0,104.0,13.4,1505.3,325.8,-0.7,1.8,2470.311,13.33,0.016,342.6
2020-08-27T07:13:03,42.805,6.029,-0.013,0.007,-0.024,105.0,108.0,102.0,13.3,1505.3,325.9,-0.7,1.8,2470.33,13.33,0.014,298.3
2020-08-27T07:16:03,42.805,6.029,-0.009,0.001,-0.005,105.0,109.0,103.0,13.4,1505.3,322.7,-0.7,1.8,2470.345,13.33,0.009,276.3
2020-08-27T07:19:03,42.805,6.029,-0.017,0.003,0.037,105.0,107.0,103.0,13.4,1505.4,327.9,-0.7,1.9,2470.323,13.34,0.017,280.0
2020-08-27T07:22:03,42.805,6.029,0.0,0.004,-0.035,105.0,106.0,104.0,13.4,1505.4,323.6,-0.7,1.8,2470.312,13.34,0.004,0.0
2020-08-27T07:25:03,42.805,6.029,-0.008,-0.001,-0.03,106.0,109.0,102.0,13.4,1505.4,325.5,-0.7,1.8,2470.365,13.34,0.008,262.9
2020-08-27T07:28:03,42.805,6.029,-0.009,0.024,-0.028,105.0,108.0,103.0,13.4,1505.4,324.0,-0.7,1.8,2470.365,13.34,0.025,339.4
2020-08-27T07:31:03,42.805,6.029,-0.023,-0.004,-0.031,108.0,108.0,103.0,13.4,1505.4,327.0,-0.7,1.8,2470.315,13.34,0.023,260.1
2020-08-27T07:34:03,42.805,6.029,-0.016,0.031,0.007,106.0,108.0,103.0,13.3,1505.4,327.1,-0.7,1.8,2470.318,13.34,0.034,332.7
2020-08-27T07:37:03,42.805,6.029,-0.016,0.012,0.003,106.0,108.0,103.0,13.4,1505.4,325.2,-0.7,1.8,2470.334,13.34,0.02,306.9
2020-08-27T07:40:03,42.805,6.029,-0.022,0.0,0.003,107.0,107.0,103.0,13.4,1505.4,324.3,-0.7,1.9,2470.306,13.34,0.022,270.0
2020-08-27T07:43:03,42.805,6.029,0.021,0.004,0.005,107.0,106.0,103.0,13.4,1505.4,324.3,-0.7,1.8,2470.302,13.34,0.021,79.2
2020-08-27T07:46:03,42.805,6.029,0.006,0.008,-0.023,106.0,109.0,101.0,13.3,1505.4,325.1,-0.7,1.8,2470.31,13.34,0.01,36.9
2020-08-27T07:49:03,42.805,6.029,-0.006,0.023,-0.044,104.0,108.0,103.0,13.4,1505.4,327.7,-0.7,1.8,2470.289,13.34,0.023,345.4
2020-08-27T07:52:03,42.805,6.029,-0.016,0.001,-0.025,107.0,108.0,103.0,13.3,1505.4,325.2,-0.7,1.9,2470.32,13.34,0.016,273.6
2020-08-27T07:55:03,42.805,6.029,0.021,0.034,0.024,104.0,106.0,102.0,13.4,1505.4,323.6,-0.7,1.8,2470.324,13.34,0.039,31.7
2020-08-27T07:58:03,42.805,6.029,-0.01,0.016,-0.039,103.0,108.0,102.0,13.4,1505.4,324.0,-0.7,1.8,2470.344,13.34,0.018,328.0
2020-08-27T08:04:03,42.805,6.029,-0.02,0.007,-0.027,103.0,107.0,102.0,13.4,1505.3,327.4,-0.8,1.8,2470.332,13.32,0.021,289.3
2020-08-27T08:07:03,42.805,6.029,-0.059,0.016,-0.041,103.0,107.0,101.0,13.3,1505.3,328.6,-0.7,1.8,2470.332,13.33,0.061,285.2
2020-08-27T08:10:03,42.805,6.029,0.009,0.024,0.018,104.0,108.0,101.0,13.3,1505.3,324.6,-0.7,1.8,2470.391,13.33,0.025,20.6
2020-08-27T08:13:03,42.805,6.029,-0.028,0.019,-0.029,103.0,107.0,101.0,13.4,1505.3,325.6,-0.7,1.8,2470.299,13.33,0.033,304.2
2020-08-27T08:16:03,42.805,6.029,0.021,0.012,-0.006,106.0,106.0,101.0,13.4,1505.3,324.0,-0.7,1.8,2470.3,13.33,0.024,60.3
2020-08-27T08:19:03,42.805,6.029,-0.016,-0.002,-0.015,104.0,107.0,103.0,13.3,1505.4,324.5,-0.7,1.8,2470.316,13.34,0.016,262.9
2020-08-27T08:22:03,42.805,6.029,-0.02,-0.011,-0.043,103.0,106.0,102.0,13.4,1505.4,327.4,-0.7,1.8,2470.343,13.34,0.022,241.2
2020-08-27T08:25:03,42.805,6.029,-0.07,0.0,-0.064,104.0,108.0,101.0,13.4,1505.4,323.6,-0.7,1.9,2470.367,13.34,0.069,270.0
2020-08-27T08:28:03,42.805,6.029,-0.012,-0.003,-0.014,104.0,106.0,101.0,13.4,1505.4,325.1,-0.7,1.8,2470.308,13.34,0.012,256.0
2020-08-27T08:31:03,42.805,6.029,-0.028,0.015,-0.054,102.0,106.0,103.0,13.3,1505.4,324.6,-0.7,1.8,2470.334,13.34,0.031,298.2
2020-08-27T08:34:03,42.805,6.029,-0.053,-0.002,-0.053,103.0,107.0,102.0,13.3,1505.4,324.3,-0.7,1.8,2470.35,13.34,0.053,267.8
2020-08-27T08:37:03,42.805,6.029,-0.006,0.009,0.018,105.0,107.0,102.0,13.4,1505.4,326.4,-0.7,1.8,2470.324,13.34,0.01,326.3
2020-08-27T08:40:03,42.805,6.029,-0.006,0.002,-0.016,104.0,106.0,102.0,13.3,1505.4,326.0,-0.7,1.8,2470.29,13.34,0.006,288.4
2020-08-27T08:43:03,42.805,6.029,-0.025,0.002,-0.047,104.0,107.0,101.0,13.4,1505.4,327.0,-0.7,1.9,2470.3,13.34,0.025,274.6
2020-08-27T08:46:03,42.805,6.029,-0.027,0.0,-0.046,105.0,106.0,102.0,13.4,1505.4,325.7,-0.7,1.8,2470.318,13.34,0.026,270.0
2020-08-27T08:49:03,42.805,6.029,-0.027,0.012,-0.058,103.0,109.0,101.0,13.3,1505.4,325.4,-0.8,1.8,2470.318,13.34,0.029,294.0
2020-08-27T08:52:03,42.805,6.029,-0.03,0.003,-0.01,104.0,108.0,102.0,13.4,1505.4,324.7,-0.7,1.8,2470.278,13.34,0.03,275.7
2020-08-27T08:55:03,42.805,6.029,-0.016,-0.009,-0.054,104.0,107.0,108.0,13.4,1505.4,324.0,-0.7,1.9,2470.296,13.35,0.018,240.6
2020-08-27T08:58:03,42.805,6.029,-0.019,-0.008,-0.033,103.0,106.0,103.0,13.4,1505.4,324.8,-0.7,1.8,2470.28,13.35,0.02,247.2
2020-08-27T09:04:03,42.805,6.029,-0.057,0.0,-0.04,104.0,107.0,101.0,13.3,1505.3,324.7,-0.7,1.8,2470.344,13.33,0.057,270.0
2020-08-27T09:07:03,42.805,6.029,-0.055,0.003,-0.054,103.0,107.0,103.0,13.4,1505.4,325.7,-0.8,1.9,2470.36,13.34,0.055,273.1
2020-08-27T09:10:03,42.805,6.029,-0.04,0.021,-0.06,109.0,106.0,101.0,13.4,1505.4,323.0,-0.7,1.8,2470.299,13.34,0.045,297.7
2020-08-27T09:13:03,42.805,6.029,-0.021,0.003,-0.037,104.0,109.0,102.0,13.4,1505.4,324.9,-0.7,1.8,2470.334,13.34,0.021,278.1
2020-08-27T09:16:03,42.805,6.029,-0.035,-0.01,-0.043,104.0,107.0,102.0,13.4,1505.4,324.6,-0.7,1.8,2470.352,13.34,0.036,254.1
2020-08-27T09:19:03,42.805,6.029,-0.027,0.013,-0.012,103.0,108.0,101.0,13.4,1505.4,327.4,-0.7,1.8,2470.329,13.34,0.029,295.7
2020-08-27T09:22:03,42.805,6.029,-0.013,0.002,-0.012,104.0,107.0,103.0,13.3,1505.4,325.5,-0.7,1.8,2470.292,13.35,0.013,278.7
2020-08-27T09:25:03,42.805,6.029,-0.045,-0.002,-0.03,105.0,107.0,101.0,13.4,1505.4,327.5,-0.7,1.8,2470.32,13.35,0.045,267.5
2020-08-27T09:31:03,42.805,6.029,0.002,0.0,-0.005,106.0,107.0,103.0,13.4,1505.3,324.8,-0.7,1.8,2470.353,13.33,0.002,90.0
2020-08-27T09:34:03,42.805,6.029,0.026,0.001,0.033,105.0,105.0,103.0,13.4,1505.4,324.4,-0.7,1.8,2470.333,13.34,0.026,87.8
2020-08-27T09:37:03,42.805,6.029,0.004,0.021,0.002,103.0,107.0,104.0,13.4,1505.4,324.1,-0.7,1.8,2470.36,13.34,0.021,10.8
2020-08-27T09:40:03,42.805,6.029,0.013,0.015,0.033,105.0,106.0,105.0,13.4,1505.4,325.1,-0.7,1.8,2470.344,13.34,0.019,40.9
2020-08-27T09:43:03,42.805,6.029,0.013,-0.007,-0.013,105.0,106.0,101.0,13.4,1505.4,326.7,-0.7,1.8,2470.377,13.34,0.014,118.3
2020-08-27T09:46:03,42.805,6.029,0.02,0.003,-0.004,106.0,106.0,102.0,13.4,1505.4,324.5,-0.7,1.8,2470.355,13.35,0.02,81.5
2020-08-27T09:49:03,42.805,6.029,0.042,-0.013,0.004,103.0,106.0,103.0,13.3,1505.4,323.5,-0.7,1.8,2470.344,13.35,0.043,107.2
2020-08-27T09:52:03,42.805,6.029,0.008,0.0,-0.036,105.0,107.0,101.0,13.4,1505.4,326.9,-0.7,1.8,2470.326,13.35,0.008,90.0
2020-08-27T09:55:03,42.805,6.029,0.006,0.009,-0.011,103.0,108.0,101.0,13.4,1505.4,326.3,-0.7,1.8,2470.337,13.35,0.01,33.7
2020-08-27T09:58:03,42.805,6.029,-0.004,-0.002,-0.004,104.0,107.0,102.0,13.4,1505.4,324.5,-0.7,1.8,2470.327,13.35,0.004,243.4
2020-08-27T10:04:03,42.805,6.029,-0.005,0.007,0.004,104.0,107.0,103.0,13.4,1505.3,325.6,-0.7,1.8,2470.39,13.33,0.008,324.5
2020-08-27T10:07:03,42.805,6.029,-0.032,0.008,-0.01,102.0,109.0,104.0,13.3,1505.4,323.7,-0.7,1.8,2470.387,13.34,0.032,284.0
2020-08-27T10:10:03,42.805,6.029,0.007,0.002,-0.001,102.0,108.0,105.0,13.3,1505.4,327.6,-0.7,1.9,2470.376,13.34,0.007,74.1